Weather past 2 weeks in Bantam, Cocos Islands

Now
79 °F

Passing clouds.


Feels Like: 81 °F
Forecast: 78 / 83 °F
Wind: 20 mph from Southeast

Location: Cocos Island Airport

Current Time: Oct 26, 2014 at 6:52:57 AM

Latest Report: Oct 26, 2014 at 6:00 AM


Visibility: N/A

Pressure: 29.95 "Hg

Humidity: 74%

Dew point: 70 °F

Location of BantamLocation

Historic Weather in Bantam — Graph

°F

Bantam temperature yesterday

Maximum temperature yesterday: 84 °F (at 12:30 PM)
Minimum temperature yesterday: 79 °F (at 12:00 AM)
Average temperature yesterday: 81 °F

Past Weeks' High & Low Weather Summary

 TemperatureHumidityPressure
High84 °F (Oct 12, 11:30 AM)94% (Oct 18, 3:30 AM)30.01 "Hg (Oct 18, 3:30 AM)
Low73 °F (Oct 18, 3:30 AM)54% (Oct 17, 8:00 AM)29.86 "Hg (Oct 11, 3:00 PM)
Average80 °F74%29.93 "Hg
* Reported Oct 11 5:30 AM — Oct 26 5:30 AM, Bantam, Weather by CustomWeather, © 2014

Note: Actual official high and low records may vary slightly from our data, if they occured in-between our weather recording intervals... More about our weather records

Advertising

Bantam weather history for previous 24 hours

 ConditionsComfort  
Time TempWeatherWind HumidityBarometerVisibility
5:30 AM
Oct 26
79 °FPassing clouds.18 mph74%29.95 "HgN/A
5:00 AM79 °FPassing clouds.17 mph74%29.95 "HgN/A
4:30 AM79 °FClear.17 mph74%29.95 "HgN/A
3:30 AM79 °FClear.16 mph74%29.92 "HgN/A
3:00 AM79 °FWarm.16 mph74%29.92 "HgN/A
2:30 AM79 °FClear.18 mph74%29.92 "HgN/A
2:00 AM79 °FPassing clouds.18 mph74%29.92 "HgN/A
1:30 AM79 °FPassing clouds.20 mph74%29.95 "HgN/A
1:00 AM79 °FPassing clouds.20 mph74%29.95 "HgN/A
12:30 AM79 °FPartly cloudy.20 mph74%29.95 "HgN/A
12:00 AM79 °FPassing clouds.20 mph74%29.98 "HgN/A
11:30 PM
Oct 25
79 °FPassing clouds.20 mph74%29.98 "HgN/A
11:00 PM79 °FPassing clouds.21 mph74%29.98 "HgN/A
10:30 PM79 °FPassing clouds.22 mph74%29.98 "HgN/A
10:00 PM79 °FClear.22 mph74%29.98 "HgN/A
9:30 PM81 °FPassing clouds.20 mph74%29.98 "HgN/A
9:00 PM81 °FPassing clouds.21 mph74%29.98 "HgN/A
8:30 PM81 °FPartly cloudy.15 mph79%29.98 "HgN/A
8:00 PM81 °FPassing clouds.20 mph74%29.98 "HgN/A
7:30 PM81 °FClear.18 mph79%29.98 "HgN/A
7:00 PM81 °FClear.20 mph74%29.95 "HgN/A
6:30 PM81 °FScattered clouds.18 mph74%29.95 "HgN/A
6:00 PM81 °FScattered clouds.16 mph79%29.95 "HgN/A
5:30 PM81 °FScattered clouds.20 mph79%29.92 "HgN/A
5:00 PM81 °FScattered clouds.20 mph74%29.92 "HgN/A
4:30 PM82 °FPassing clouds.20 mph74%29.92 "HgN/A
4:00 PM82 °FPassing clouds.21 mph74%29.92 "HgN/A
3:30 PM82 °FPassing clouds.22 mph74%29.92 "HgN/A
3:00 PM84 °FScattered clouds.22 mph70%29.92 "HgN/A
2:30 PM82 °FScattered clouds.21 mph74%29.92 "HgN/A
2:00 PM84 °FScattered clouds.21 mph70%29.92 "HgN/A
1:30 PM84 °FPassing clouds.20 mph70%29.92 "HgN/A
1:00 PM84 °FPassing clouds.21 mph70%29.92 "HgN/A
12:30 PM84 °FScattered clouds.20 mph70%29.95 "HgN/A
12:00 PM82 °FScattered clouds.21 mph74%29.95 "HgN/A
11:30 AM82 °FScattered clouds.21 mph74%29.98 "HgN/A
11:00 AM82 °FPassing clouds.18 mph74%29.98 "HgN/A
10:30 AM82 °FScattered clouds.21 mph74%29.98 "HgN/A
10:00 AM82 °FScattered clouds.20 mph74%29.98 "HgN/A
9:30 AM82 °FScattered clouds.20 mph74%29.98 "HgN/A
9:00 AM82 °FPassing clouds.20 mph70%29.98 "HgN/A
8:30 AM81 °FPassing clouds.20 mph74%29.98 "HgN/A
8:00 AM81 °FPassing clouds.15 mph79%29.98 "HgN/A
7:30 AM81 °FPassing clouds.17 mph79%29.98 "HgN/A
7:00 AM81 °FPassing clouds.18 mph74%29.98 "HgN/A
6:30 AM79 °FPassing clouds.18 mph79%29.95 "HgN/A
6:00 AM79 °FPassing clouds.20 mph79%29.95 "HgN/A
Weather by CustomWeather, © 2014

See weather overviewHow to use our weather pages